Skip Page Navigation
NASA JPL Caltech
NASA Logo - Jet Propulsion Laboratory + View the NASA Portal
+ Center for Near-Earth Object Studies
JPL Home Earth Solar System Stars & Galaxies Technology
JPL Solar System Dynamics
BODIES ORBITS EPHEMERIDES TOOLS PHYSICAL DATA DISCOVERY FAQ SITE MAP
IMPORTANT: The SSD Announcement email list is now available. Major changes are coming in the near future, including possible hostname and/or URL changes. To be notified of such changes, subscribe to this email list.

Please visit this page for more details.


JPL Small-Body Database Browser
Search: [ help ]  
47108 (1999 CM37)
Classification: Main-belt Asteroid          SPK-ID: 2047108
Ephemeris | Orbit Diagram | Orbital Elements | Mission Design | Physical Parameters | Discovery Circumstances | Close-Approach Data ]

[ hide orbit diagram ]

For accurate long-term ephemerides, please instead use our Horizons system.This orbit viewer was implemented using two-body methods, and hence should not be used for determining accurate long-term trajectories (over several years or decades) or planetary encounter circumstances.


[ revert to old Java-based viewer ]

Orbital Elements at Epoch 2459000.5 (2020-May-31.0) TDB
Reference: JPL 24 (heliocentric ecliptic J2000)
 Element Value Uncertainty (1-sigma)   Units 
e .150712233351797 3.6426e-08  
a 3.116553937498477 1.954e-08 au
q 2.646851133216745 1.2217e-07 au
i 3.216211427541782 3.7215e-06 deg
node 103.1685543936928 0.00010616 deg
peri 355.601311116342 0.00010877 deg
M 347.971102162211 2.3121e-05 deg
tp 2459067.648100816147
(2020-Aug-06.14810082)
0.00012929 TDB
period 2009.603591267701
5.50
1.8899e-05
5.174e-08
d
yr
n .1791398072556709 1.6847e-09 deg/d
Q 3.586256741780209 2.2485e-08 au
  Orbit Determination Parameters
   # obs. used (total)      1261  
   data-arc span      12061 days (33.02 yr)  
   first obs. used      1986-11-25  
   last obs. used      2019-12-03  
   planetary ephem.      DE431  
   SB-pert. ephem.      SB431-N16  
   condition code      0  
   norm. resid. RMS      .50526  
   source      ORB  
   producer      Otto Matic  
   solution date      2019-Dec-14 04:00:28  

Additional Information
 Earth MOID = 1.66373 au 
 Jupiter MOID = 1.57705 au 
 T_jup = 3.197 
[ show covariance matrix ]

Ephemeris | Orbit Diagram | Orbital Elements | Mission Design | Physical Parameters | Discovery Circumstances | Close-Approach Data ]

Physical Parameter Table
Parameter Symbol Value Units Sigma Reference Notes
absolute magnitude H 13.8   n/a MPO365803  
diameter diameter 8.273 km 0.176 urn:nasa:pds:neowise_diameters_albedos::2.0[mainbelt] (http://adsabs.harvard.edu/abs/2011ApJ...741...68M)  
geometric albedo albedo 0.094   0.019 urn:nasa:pds:neowise_diameters_albedos::2.0[mainbelt] (http://adsabs.harvard.edu/abs/2011ApJ...741...68M)  

47108 (1999 CM37)          Discovered 1999-Feb-10 by LINEAR at Socorro
Reference: 20020921/Numbers.arcLast Updated: 2004-04-19

[ show close-approach data ]
Alternate Designations
 1999 CM37 = 1986 WZ3 = 1997 UN23 
Ephemeris | Orbit Diagram | Orbital Elements | Mission Design | Physical Parameters | Discovery Circumstances | Close-Approach Data ]
ABOUT SSD CREDITS/AWARDS PRIVACY/COPYRIGHT GLOSSARY LINKS
FirstGov 2020-Feb-22 11:47 UT
(server date/time)  
NASA Home Page
Site Manager:   Ryan S. Park
Webmaster  Alan B. Chamberlin